St. Augustine, FL

2:31 PM EDT on May 24, 2018 (GMT -0400)
Saint Augustine

Weather History for KSGJ - January, 2010

Change the Weather History Date:

Monday, January 4, 2010

  Actual Average Record
Temperature  
Mean Temperature 38 °F -  
Max Temperature 48 °F 62 °F 82 °F (2015)
Min Temperature 28 °F 44 °F 28 °F (1979)
Degree Days  
Heating Degree Days 27    
Moisture  
Dew Point 16 °F    
Average Humidity 45    
Maximum Humidity 66    
Minimum Humidity 22    
Precipitation  
Precipitation 0.00 in - - ()
Sea Level Pressure  
Sea Level Pressure 30.10 in    
Wind  
Wind Speed 6 mph (WNW)    
Max Wind Speed 12 mph    
Max Gust Speed -    
Visibility 10 miles    
Events      
Averages and records for this station are not official NWS values.
T = Trace of Precipitation, MM = Missing Value Source: NWS Daily Summary

Daily Weather History Graph

Daily Weather History Graph

Search for Another Location

Airport or City:

Astronomy

Jan. 04, 2010 Rise Set
Actual Time 7:21 AM EST 5:39 PM EST
Civil Twilight 6:55 AM EST 6:05 PM EST
Nautical Twilight 6:25 AM EST 6:34 PM EST
Astronomical Twilight 5:56 AM EST 7:04 PM EST
Moon 10:20 PM EST (1/4) 10:11 AM EST (1/4)
Length of Visible Light 11h 09m
Length of Day
10h 17m
Waning Gibbous, 79% of the Moon is Illuminated
Jan 4
Waning Gibbous
Jan 7
Last Quarter
Jan 15
New
Jan 23
First Quarter
Jan 30
Full

Hourly Weather History & Observations

Time (EST) Temp. Windchill Dew Point Humidity Pressure Visibility Wind Dir Wind Speed Gust Speed Precip Events Conditions
12:58 AM 33.1 °F 28.7 °F 21.9 °F 64% 30.12 in 10.0 mi West 4.6 mph - N/A   Clear
1:58 AM 32.0 °F 26.4 °F 21.9 °F 66% 30.11 in 10.0 mi NW 5.8 mph - N/A   Clear
2:58 AM 30.9 °F 25.2 °F 19.9 °F 64% 30.09 in 10.0 mi NW 5.8 mph - N/A   Clear
3:58 AM 30.9 °F 25.2 °F 19.0 °F 61% 30.10 in 10.0 mi NW 5.8 mph - N/A   Clear
4:58 AM 30.9 °F 23.5 °F 17.1 °F 57% 30.11 in 10.0 mi NW 8.1 mph - N/A   Clear
5:58 AM 30.0 °F 24.1 °F 17.1 °F 59% 30.12 in 10.0 mi WNW 5.8 mph - N/A   Clear
6:58 AM 28.9 °F 21.9 °F 17.1 °F 61% 30.12 in 10.0 mi NW 6.9 mph - N/A   Clear
7:58 AM 30.0 °F 24.1 °F 16.0 °F 56% 30.14 in 10.0 mi WNW 5.8 mph - N/A   Clear
8:58 AM 33.1 °F 25.5 °F 12.0 °F 42% 30.15 in 10.0 mi NW 9.2 mph - N/A   Clear
9:58 AM 35.6 °F 29.2 °F 10.4 °F 35% 30.16 in 9.0 mi NW 8.1 mph - N/A   Partly Cloudy
10:58 AM 39.9 °F 33.9 °F 12.0 °F 32% 30.14 in 10.0 mi West 9.2 mph - N/A   Clear
11:58 AM 43.0 °F 37.7 °F 10.9 °F 27% 30.12 in 10.0 mi WSW 9.2 mph - N/A   Clear
12:58 PM 45.0 °F 41.2 °F 12.0 °F 26% 30.07 in 10.0 mi West 6.9 mph - N/A   Clear
1:58 PM 46.9 °F - 10.9 °F 23% 30.05 in 10.0 mi NW 6.9 mph - N/A   Clear
2:58 PM 48.0 °F - 12.9 °F 24% 30.04 in 10.0 mi Variable 6.9 mph - N/A   Clear
3:58 PM 48.9 °F - 10.9 °F 22% 30.05 in 10.0 mi West 11.5 mph - N/A   Clear
4:58 PM 48.0 °F - 12.0 °F 24% 30.05 in 10.0 mi WNW 8.1 mph - N/A   Clear
5:58 PM 45.0 °F 43.5 °F 17.1 °F 33% 30.07 in 10.0 mi West 3.5 mph - N/A   Clear
6:58 PM 41.0 °F 38.0 °F 19.0 °F 41% 30.08 in 10.0 mi West 4.6 mph - N/A   Clear
7:58 PM 39.0 °F 34.8 °F 19.9 °F 46% 30.09 in 10.0 mi West 5.8 mph - N/A   Clear
8:58 PM 37.9 °F 34.4 °F 19.9 °F 48% 30.10 in 10.0 mi West 4.6 mph - N/A   Clear
9:58 PM 37.0 °F 33.3 °F 19.9 °F 50% 30.12 in 10.0 mi West 4.6 mph - N/A   Clear
10:58 PM 35.1 °F 31.0 °F 19.9 °F 54% 30.12 in 10.0 mi West 4.6 mph - N/A   Clear
11:58 PM 35.1 °F 30.1 °F 19.9 °F 54% 30.13 in 10.0 mi West 5.8 mph - N/A   Clear